| time (UTC) | temp F | wind direction | speed MPH | gust MPH | rain 1hr in | rain 24hr in | rain mn in | humidity % | barometer mb |
| 20260906163710 | 57 | 257 | 0.0 | 1.0 | 0.00 | 0.02 | 0.02 | 93 | 1024.6 |
| 20260906163249 | 57 | 207 | 0.0 | 1.0 | 0.00 | 0.02 | 0.02 | 94 | 1024.6 |
| 20260906162725 | 57 | 210 | 0.0 | 0.0 | 0.00 | 0.02 | 0.02 | 94 | 1024.6 |
| 20260906162223 | 57 | 210 | 0.0 | 0.0 | 0.00 | 0.02 | 0.02 | 93 | 1024.7 |
| 20260906161721 | 57 | 210 | 0.0 | 1.0 | 0.00 | 0.02 | 0.02 | 93 | 1024.7 |
| 20260906161219 | 57 | 210 | 0.0 | 1.0 | 0.00 | 0.02 | 0.02 | 93 | 1024.7 |
| 20260906160721 | 57 | 210 | 0.0 | 0.0 | 0.00 | 0.02 | 0.02 | 93 | 1024.7 |
| 20260906160239 | 57 | 210 | 0.0 | 1.0 | 0.00 | 0.02 | 0.02 | 93 | 1024.6 |
| 20260906155716 | 57 | 210 | 0.0 | 1.0 | 0.00 | 0.02 | 0.02 | 93 | 1024.6 |
| 20260906155213 | 57 | 99 | 0.0 | 0.0 | 0.00 | 0.02 | 0.02 | 93 | 1024.7 |
| 20260906154711 | 57 | 259 | 0.0 | 0.0 | 0.00 | 0.02 | 0.02 | 93 | 1024.7 |
| 20260906154227 | 56 | 257 | 0.0 | 0.0 | 0.00 | 0.02 | 0.02 | 93 | 1024.6 |
| 20260906153725 | 56 | 257 | 0.0 | 0.0 | 0.00 | 0.02 | 0.02 | 93 | 1024.6 |
| 20260906153223 | 56 | 257 | 0.0 | 0.0 | 0.00 | 0.02 | 0.02 | 93 | 1024.7 |
| 20260906152721 | 56 | 257 | 0.0 | 0.0 | 0.00 | 0.02 | 0.02 | 93 | 1024.7 |
| 20260906152219 | 56 | 310 | 0.0 | 0.0 | 0.00 | 0.02 | 0.02 | 93 | 1024.5 |
| 20260906151736 | 57 | 310 | 0.0 | 0.0 | 0.00 | 0.02 | 0.02 | 93 | 1024.6 |
| 20260906151232 | 56 | 315 | 0.0 | 0.0 | 0.00 | 0.02 | 0.02 | 93 | 1024.5 |
| 20260906150730 | 56 | 315 | 0.0 | 0.0 | 0.00 | 0.02 | 0.02 | 93 | 1024.5 |
| 20260906150227 | 56 | 315 | 0.0 | 0.0 | 0.00 | 0.02 | 0.02 | 93 | 1024.3 |
| 20260906145726 | 56 | 316 | 0.0 | 0.0 | 0.00 | 0.02 | 0.02 | 93 | 1024.3 |
| 20260906145224 | 56 | 315 | 0.0 | 0.0 | 0.00 | 0.02 | 0.02 | 92 | 1024.2 |
| 20260906144722 | 56 | 316 | 0.0 | 0.0 | 0.00 | 0.02 | 0.02 | 92 | 1024.2 |
| 20260906144221 | 56 | 316 | 0.0 | 1.0 | 0.00 | 0.02 | 0.02 | 92 | 1024.3 |
| 20260906143721 | 56 | 315 | 0.0 | 2.0 | 0.00 | 0.02 | 0.02 | 92 | 1024.1 |
| 20260906143218 | 56 | 303 | 0.0 | 2.0 | 0.00 | 0.02 | 0.02 | 92 | 1024.0 |
| 20260906142716 | 56 | 290 | 0.0 | 6.0 | 0.00 | 0.02 | 0.02 | 92 | 1023.8 |
| 20260906142214 | 56 | 215 | 1.0 | 6.0 | 0.00 | 0.02 | 0.02 | 92 | 1023.7 |
| 20260906141712 | 56 | 84 | 0.0 | 1.0 | 0.00 | 0.02 | 0.02 | 93 | 1023.6 |
| 20260906141210 | 56 | 313 | 0.0 | 1.0 | 0.00 | 0.02 | 0.02 | 92 | 1023.8 |
| 20260906140714 | 56 | 308 | 0.0 | 2.0 | 0.00 | 0.02 | 0.02 | 92 | 1023.5 |
| 20260906140212 | 56 | 308 | 0.0 | 2.0 | 0.00 | 0.02 | 0.02 | 92 | 1023.3 |
| 20260906135711 | 56 | 323 | 0.0 | 0.0 | 0.00 | 0.02 | 0.02 | 92 | 1023.3 |
| 20260906135229 | 56 | 322 | 0.0 | 0.0 | 0.00 | 0.02 | 0.02 | 92 | 1023.2 |
| 20260906134727 | 56 | 323 | 0.0 | 1.0 | 0.00 | 0.02 | 0.02 | 92 | 1023.2 |
| 20260906134223 | 56 | 323 | 0.0 | 1.0 | 0.00 | 0.02 | 0.02 | 92 | 1023.1 |
| 20260906133721 | 56 | 325 | 0.0 | 1.0 | 0.01 | 0.02 | 0.02 | 92 | 1023.0 |
| 20260906133219 | 56 | 143 | 0.0 | 1.0 | 0.01 | 0.02 | 0.02 | 91 | 1023.0 |
| 20260906132721 | 55 | 138 | 0.0 | 0.0 | 0.01 | 0.02 | 0.02 | 91 | 1023.0 |
| 20260906132219 | 55 | 138 | 0.0 | 0.0 | 0.02 | 0.02 | 0.02 | 91 | 1023.0 |
| 20260906131717 | 55 | 138 | 0.0 | 0.0 | 0.02 | 0.02 | 0.02 | 91 | 1023.1 |
| 20260906131214 | 56 | 138 | 0.0 | 0.0 | 0.02 | 0.02 | 0.02 | 91 | 1023.0 |
| 20260906130712 | 56 | 138 | 0.0 | 0.0 | 0.02 | 0.02 | 0.02 | 90 | 1023.1 |
| 20260906130229 | 56 | 138 | 0.0 | 1.0 | 0.02 | 0.02 | 0.02 | 90 | 1023.1 |
| 20260906125728 | 56 | 138 | 0.0 | 1.0 | 0.02 | 0.02 | 0.02 | 90 | 1023.1 |
| 20260906125225 | 56 | 138 | 0.0 | 0.0 | 0.02 | 0.02 | 0.02 | 89 | 1023.0 |
| 20260906124743 | 56 | 138 | 0.0 | 1.0 | 0.02 | 0.02 | 0.02 | 89 | 1023.1 |
| 20260906124241 | 56 | 138 | 0.0 | 1.0 | 0.02 | 0.02 | 0.02 | 89 | 1023.0 |
| 20260906123718 | 56 | 39 | 0.0 | 0.0 | 0.01 | 0.01 | 0.01 | 88 | 1023.1 |
| 20260906123216 | 56 | 38 | 0.0 | 0.0 | 0.01 | 0.01 | 0.01 | 88 | 1023.2 |
| 20260906122734 | 57 | 38 | 0.0 | 0.0 | 0.00 | 0.00 | 0.00 | 88 | 1023.0 |
| 20260906122231 | 57 | 38 | 0.0 | 0.0 | 0.00 | 0.00 | 0.00 | 87 | 1023.1 |
| 20260906121729 | 57 | 38 | 0.0 | 0.0 | 0.00 | 0.00 | 0.00 | 86 | 1023.2 |
| 20260906121227 | 57 | 38 | 0.0 | 0.0 | 0.00 | 0.00 | 0.00 | 86 | 1023.2 |
| 20260906120724 | 57 | 38 | 0.0 | 1.0 | 0.00 | 0.00 | 0.00 | 84 | 1023.2 |
| 20260906120222 | 58 | 38 | 0.0 | 1.0 | 0.00 | 0.00 | 0.00 | 83 | 1023.2 |
| 20260906115726 | 58 | 38 | 0.0 | 1.0 | 0.00 | 0.00 | 0.00 | 82 | 1023.1 |
| 20260906115223 | 58 | 38 | 0.0 | 1.0 | 0.00 | 0.00 | 0.00 | 81 | 1023.1 |
| 20260906114721 | 58 | 38 | 0.0 | 1.0 | 0.00 | 0.00 | 0.00 | 81 | 1023.2 |
| 20260906114219 | 58 | 286 | 0.0 | 1.0 | 0.00 | 0.00 | 0.00 | 81 | 1023.3 |
| 20260906113717 | 58 | 286 | 0.0 | 1.0 | 0.00 | 0.00 | 0.00 | 82 | 1023.2 |
| 20260906113215 | 57 | 46 | 0.0 | 0.0 | 0.00 | 0.00 | 0.00 | 82 | 1023.2 |
| 20260906112713 | 57 | 47 | 0.0 | 1.0 | 0.00 | 0.00 | 0.00 | 82 | 1023.2 |
| 20260906112231 | 57 | 46 | 0.0 | 1.0 | 0.00 | 0.00 | 0.00 | 82 | 1023.1 |
| 20260906111728 | 57 | 44 | 0.0 | 0.0 | 0.00 | 0.00 | 0.00 | 82 | 1023.2 |
| 20260906111226 | 57 | 44 | 0.0 | 1.0 | 0.00 | 0.00 | 0.00 | 81 | 1023.2 |
| 20260906110724 | 57 | 44 | 0.0 | 1.0 | 0.00 | 0.00 | 0.00 | 81 | 1023.1 |
| 20260906110224 | 57 | 44 | 0.0 | 0.0 | 0.00 | 0.00 | 0.00 | 80 | 1023.1 |
| 20260906105723 | 57 | 44 | 0.0 | 0.0 | 0.00 | 0.00 | 0.00 | 80 | 1023.1 |
| 20260906105221 | 57 | 44 | 0.0 | 0.0 | 0.00 | 0.00 | 0.00 | 79 | 1023.1 |
| 20260906104723 | 57 | 44 | 0.0 | 0.0 | 0.00 | 0.00 | 0.00 | 79 | 1023.2 |
| 20260906104220 | 58 | 44 | 0.0 | 0.0 | 0.00 | 0.00 | 0.00 | 79 | 1023.3 |
| 20260906103739 | 58 | 44 | 0.0 | 0.0 | 0.00 | 0.00 | 0.00 | 79 | 1023.2 |
| 20260906103215 | 58 | 44 | 0.0 | 0.0 | 0.00 | 0.00 | 0.00 | 79 | 1023.2 |
| 20260906102713 | 58 | 44 | 0.0 | 0.0 | 0.00 | 0.00 | 0.00 | 79 | 1023.3 |
| 20260906102231 | 58 | 44 | 0.0 | 0.0 | 0.00 | 0.00 | 0.00 | 79 | 1023.3 |
| 20260906101729 | 58 | 44 | 0.0 | 0.0 | 0.00 | 0.00 | 0.00 | 79 | 1023.5 |
| 20260906101227 | 58 | 44 | 0.0 | 0.0 | 0.00 | 0.00 | 0.00 | 79 | 1023.6 |
| 20260906100725 | 58 | 44 | 0.0 | 0.0 | 0.00 | 0.00 | 0.00 | 79 | 1023.5 |
| 20260906100223 | 58 | 44 | 0.0 | 0.0 | 0.00 | 0.00 | 0.00 | 79 | 1023.6 |
| 20260906095723 | 58 | 44 | 0.0 | 1.0 | 0.00 | 0.00 | 0.00 | 79 | 1023.6 |
| 20260906095223 | 58 | 44 | 0.0 | 1.0 | 0.00 | 0.00 | 0.00 | 78 | 1023.5 |
| 20260906094720 | 58 | 44 | 0.0 | 0.0 | 0.00 | 0.00 | 0.00 | 78 | 1023.5 |
| 20260906094219 | 57 | 44 | 0.0 | 0.0 | 0.00 | 0.00 | 0.00 | 79 | 1023.5 |
| 20260906093717 | 57 | 44 | 0.0 | 0.0 | 0.00 | 0.00 | 0.00 | 80 | 1023.5 |
| 20260906093219 | 57 | 44 | 0.0 | 0.0 | 0.00 | 0.00 | 0.00 | 80 | 1023.5 |
| 20260906092717 | 57 | 44 | 0.0 | 0.0 | 0.00 | 0.00 | 0.00 | 81 | 1023.4 |
| 20260906092231 | 57 | 44 | 0.0 | 0.0 | 0.00 | 0.00 | 0.00 | 81 | 1023.3 |
| 20260906091729 | 57 | 44 | 0.0 | 0.0 | 0.00 | 0.00 | 0.00 | 82 | 1023.5 |
| 20260906091227 | 57 | 44 | 0.0 | 0.0 | 0.00 | 0.00 | 0.00 | 82 | 1023.6 |
| 20260906090745 | 57 | 44 | 0.0 | 0.0 | 0.00 | 0.00 | 0.00 | 82 | 1023.5 |
| 20260906090242 | 56 | 44 | 0.0 | 0.0 | 0.00 | 0.00 | 0.00 | 83 | 1023.5 |
| 20260906085719 | 56 | 44 | 0.0 | 0.0 | 0.00 | 0.00 | 0.00 | 82 | 1023.6 |
| 20260906085217 | 56 | 44 | 0.0 | 0.0 | 0.00 | 0.00 | 0.00 | 82 | 1023.6 |
| 20260906084715 | 56 | 44 | 0.0 | 0.0 | 0.00 | 0.00 | 0.00 | 82 | 1023.7 |
| 20260906084213 | 56 | 44 | 0.0 | 0.0 | 0.00 | 0.00 | 0.00 | 82 | 1023.6 |
| 20260906083731 | 56 | 44 | 0.0 | 0.0 | 0.00 | 0.00 | 0.00 | 82 | 1023.6 |
| 20260906083229 | 56 | 44 | 0.0 | 0.0 | 0.00 | 0.00 | 0.00 | 82 | 1023.5 |
| 20260906082727 | 56 | 44 | 0.0 | 0.0 | 0.00 | 0.00 | 0.00 | 83 | 1023.6 |
| 20260906082224 | 56 | 44 | 0.0 | 0.0 | 0.00 | 0.00 | 0.00 | 83 | 1023.7 |
| 20260906081721 | 56 | 44 | 0.0 | 0.0 | 0.00 | 0.00 | 0.00 | 82 | 1023.6 |
| 20260906081218 | 56 | 44 | 0.0 | 0.0 | 0.00 | 0.00 | 0.00 | 83 | 1023.7 |
| 20260906080720 | 56 | 44 | 0.0 | 0.0 | 0.00 | 0.00 | 0.00 | 83 | 1023.6 |
| 20260906080217 | 56 | 44 | 0.0 | 0.0 | 0.00 | 0.00 | 0.00 | 83 | 1023.6 |
| 20260906075736 | 56 | 44 | 0.0 | 0.0 | 0.00 | 0.00 | 0.00 | 83 | 1023.7 |
| 20260906075210 | 56 | 44 | 0.0 | 0.0 | 0.00 | 0.00 | 0.00 | 83 | 1023.7 |
| 20260906074707 | 56 | 44 | 0.0 | 0.0 | 0.00 | 0.00 | 0.00 | 82 | 1023.6 |
| 20260906074226 | 56 | 44 | 0.0 | 0.0 | 0.00 | 0.00 | 0.00 | 81 | 1023.7 |
| 20260906073704 | 56 | 44 | 0.0 | 0.0 | 0.00 | 0.00 | 0.00 | 81 | 1023.7 |
| 20260906073222 | 56 | 44 | 0.0 | 0.0 | 0.00 | 0.00 | 0.00 | 81 | 1023.7 |
| 20260906072719 | 56 | 44 | 0.0 | 0.0 | 0.00 | 0.00 | 0.00 | 81 | 1023.7 |
| 20260906072216 | 56 | 44 | 0.0 | 0.0 | 0.00 | 0.00 | 0.00 | 79 | 1023.7 |
| 20260906071714 | 57 | 44 | 0.0 | 1.0 | 0.00 | 0.00 | 0.00 | 79 | 1023.8 |
| 20260906071212 | 56 | 44 | 0.0 | 1.0 | 0.00 | 0.00 | 0.00 | 81 | 1023.7 |
| 20260906070710 | 56 | 45 | 0.0 | 1.0 | 0.00 | 0.00 | 0.00 | 81 | 1023.7 |
| 20260906070228 | 56 | 31 | 0.0 | 0.0 | 0.00 | 0.00 | 0.00 | 80 | 1023.7 |
| 20260906065720 | 56 | 32 | 0.0 | 0.0 | 0.00 | 0.00 | 0.00 | 80 | 1023.7 |
| 20260906065218 | 56 | 32 | 0.0 | 0.0 | 0.00 | 0.00 | 0.00 | 78 | 1023.7 |
| 20260906064715 | 56 | 32 | 0.0 | 0.0 | 0.00 | 0.00 | 0.00 | 79 | 1023.7 |
| 20260906064231 | 56 | 32 | 0.0 | 0.0 | 0.00 | 0.00 | 0.00 | 77 | 1023.7 |
| 20260906063708 | 56 | 32 | 0.0 | 1.0 | 0.00 | 0.00 | 0.00 | 77 | 1023.7 |
| 20260906063226 | 57 | 32 | 0.0 | 1.0 | 0.00 | 0.00 | 0.00 | 76 | 1023.7 |
| 20260906062707 | 57 | 32 | 0.0 | 2.0 | 0.00 | 0.00 | 0.00 | 75 | 1023.8 |
| 20260906062205 | 57 | 32 | 0.0 | 2.0 | 0.00 | 0.00 | 0.00 | 74 | 1023.8 |
| 20260906061722 | 57 | 30 | 0.0 | 0.0 | 0.00 | 0.00 | 0.00 | 72 | 1023.8 |
| 20260906061220 | 58 | 30 | 0.0 | 1.0 | 0.00 | 0.00 | 0.00 | 72 | 1023.8 |
| 20260906060719 | 58 | 30 | 0.0 | 2.0 | 0.00 | 0.00 | 0.00 | 70 | 1023.8 |
| 20260906060237 | 59 | 30 | 0.0 | 2.0 | 0.00 | 0.00 | 0.00 | 71 | 1023.8 |
| 20260906055714 | 59 | 326 | 0.0 | 3.0 | 0.00 | 0.00 | 0.00 | 72 | 1023.8 |
| 20260906055211 | 59 | 289 | 0.0 | 3.0 | 0.00 | 0.00 | 0.00 | 72 | 1023.7 |
| 20260906054729 | 59 | 293 | 0.0 | 1.0 | 0.00 | 0.00 | 0.00 | 71 | 1023.8 |
| 20260906054206 | 59 | 89 | 0.0 | 4.0 | 0.00 | 0.00 | 0.00 | 70 | 1023.7 |
| 20260906053724 | 59 | 240 | 1.0 | 4.0 | 0.00 | 0.00 | 0.00 | 71 | 1023.8 |
| 20260906053222 | 59 | 297 | 0.0 | 1.0 | 0.00 | 0.00 | 0.00 | 69 | 1023.7 |
| 20260906052720 | 59 | 297 | 0.0 | 1.0 | 0.00 | 0.00 | 0.00 | 69 | 1023.7 |
| 20260906052217 | 59 | 265 | 0.0 | 1.0 | 0.00 | 0.00 | 0.00 | 67 | 1023.7 |
| 20260906051715 | 59 | 250 | 0.0 | 2.0 | 0.00 | 0.00 | 0.00 | 68 | 1023.6 |
| 20260906051213 | 59 | 257 | 0.0 | 2.0 | 0.00 | 0.00 | 0.00 | 68 | 1023.6 |
| 20260906050711 | 59 | 283 | 0.0 | 1.0 | 0.00 | 0.00 | 0.00 | 68 | 1023.7 |
| 20260906050213 | 59 | 254 | 0.0 | 2.0 | 0.00 | 0.00 | 0.00 | 67 | 1023.7 |
| 20260906045712 | 59 | 259 | 0.0 | 2.0 | 0.00 | 0.00 | 0.00 | 67 | 1023.7 |
| 20260906045230 | 59 | 262 | 0.0 | 1.0 | 0.00 | 0.00 | 0.00 | 66 | 1023.9 |
| 20260906044707 | 59 | 262 | 0.0 | 2.0 | 0.00 | 0.00 | 0.00 | 66 | 1023.9 |
| 20260906044205 | 58 | 262 | 0.0 | 2.0 | 0.00 | 0.00 | 0.00 | 66 | 1024.0 |
| 20260906043723 | 58 | 255 | 1.0 | 2.0 | 0.00 | 0.00 | 0.00 | 66 | 1024.0 |
| 20260906043220 | 58 | 258 | 0.0 | 2.0 | 0.00 | 0.00 | 0.00 | 66 | 1024.0 |
| 20260906042718 | 58 | 259 | 0.0 | 1.0 | 0.00 | 0.00 | 0.00 | 65 | 1024.1 |
| 20260906042217 | 58 | 252 | 0.0 | 1.0 | 0.00 | 0.00 | 0.00 | 65 | 1024.1 |
| 20260906041715 | 58 | 252 | 0.0 | 1.0 | 0.00 | 0.00 | 0.00 | 64 | 1024.0 |
| 20260906041211 | 58 | 256 | 1.0 | 1.0 | 0.00 | 0.00 | 0.00 | 63 | 1024.2 |
| 20260906040728 | 58 | 254 | 0.0 | 1.0 | 0.00 | 0.00 | 0.00 | 62 | 1024.1 |
| 20260906040225 | 58 | 254 | 0.0 | 1.0 | 0.00 | 0.00 | 0.00 | 62 | 1024.0 |
| 20260906035723 | 58 | 254 | 1.0 | 1.0 | 0.00 | 0.00 | 0.00 | 59 | 1024.0 |
| 20260906035222 | 58 | 254 | 0.0 | 1.0 | 0.00 | 0.00 | 0.00 | 59 | 1023.9 |
| 20260906034720 | 58 | 254 | 0.0 | 1.0 | 0.00 | 0.00 | 0.00 | 58 | 1024.0 |
| 20260906034219 | 58 | 254 | 0.0 | 1.0 | 0.00 | 0.00 | 0.00 | 59 | 1023.9 |
| 20260906033721 | 58 | 254 | 0.0 | 1.0 | 0.00 | 0.00 | 0.00 | 57 | 1024.0 |
| 20260906033219 | 58 | 254 | 0.0 | 1.0 | 0.00 | 0.00 | 0.00 | 56 | 1023.8 |
| 20260906032717 | 58 | 254 | 0.0 | 1.0 | 0.00 | 0.00 | 0.00 | 54 | 1023.9 |
| 20260906032215 | 58 | 254 | 0.0 | 0.0 | 0.00 | 0.00 | 0.00 | 53 | 1023.8 |
| 20260906031713 | 59 | 254 | 0.0 | 0.0 | 0.00 | 0.00 | 0.00 | 52 | 1023.8 |
| 20260906031231 | 59 | 254 | 0.0 | 0.0 | 0.00 | 0.00 | 0.00 | 51 | 1023.8 |
| 20260906030708 | 59 | 254 | 0.0 | 0.0 | 0.00 | 0.00 | 0.00 | 51 | 1023.8 |
| 20260906030206 | 59 | 254 | 0.0 | 0.0 | 0.00 | 0.00 | 0.00 | 50 | 1023.8 |
| 20260906025725 | 59 | 254 | 0.0 | 1.0 | 0.00 | 0.00 | 0.00 | 49 | 1023.8 |
| 20260906025222 | 60 | 254 | 0.0 | 1.0 | 0.00 | 0.00 | 0.00 | 50 | 1023.7 |
| 20260906024720 | 60 | 254 | 0.0 | 0.0 | 0.00 | 0.00 | 0.00 | 49 | 1023.7 |
| 20260906024218 | 60 | 254 | 0.0 | 0.0 | 0.00 | 0.00 | 0.00 | 47 | 1023.6 |
| 20260906023734 | 60 | 254 | 0.0 | 0.0 | 0.00 | 0.00 | 0.00 | 47 | 1023.6 |
| 20260906023211 | 60 | 254 | 0.0 | 1.0 | 0.00 | 0.00 | 0.00 | 46 | 1023.6 |
| 20260906022708 | 61 | 254 | 0.0 | 1.0 | 0.00 | 0.00 | 0.00 | 46 | 1023.6 |
| 20260906022206 | 61 | 254 | 0.0 | 1.0 | 0.00 | 0.00 | 0.00 | 45 | 1023.5 |
| 20260906021709 | 61 | 254 | 0.0 | 1.0 | 0.00 | 0.00 | 0.00 | 45 | 1023.5 |
| 20260906021226 | 61 | 254 | 0.0 | 1.0 | 0.00 | 0.00 | 0.00 | 45 | 1023.5 |
| 20260906020723 | 61 | 254 | 0.0 | 1.0 | 0.00 | 0.00 | 0.00 | 44 | 1023.5 |
| 20260906020241 | 61 | 254 | 0.0 | 1.0 | 0.00 | 0.00 | 0.00 | 44 | 1023.5 |
| 20260906015713 | 61 | 269 | 0.0 | 1.0 | 0.00 | 0.00 | 0.00 | 44 | 1023.5 |
| 20260906015210 | 61 | 297 | 0.0 | 1.0 | 0.00 | 0.00 | 0.00 | 44 | 1023.5 |
| 20260906014728 | 61 | 245 | 0.0 | 1.0 | 0.00 | 0.00 | 0.00 | 44 | 1023.6 |
| 20260906014225 | 62 | 245 | 0.0 | 1.0 | 0.00 | 0.00 | 0.00 | 44 | 1023.5 |
| 20260906013720 | 62 | 245 | 0.0 | 1.0 | 0.00 | 0.00 | 0.00 | 43 | 1023.6 |
| 20260906013217 | 62 | 237 | 0.0 | 1.0 | 0.00 | 0.00 | 0.00 | 43 | 1023.6 |
| 20260906012715 | 62 | 224 | 0.0 | 1.0 | 0.00 | 0.00 | 0.00 | 43 | 1023.6 |
| 20260906012233 | 63 | 220 | 0.0 | 1.0 | 0.00 | 0.00 | 0.00 | 42 | 1023.6 |
| 20260906011710 | 63 | 131 | 0.0 | 1.0 | 0.00 | 0.00 | 0.00 | 42 | 1023.7 |
| 20260906011207 | 63 | 257 | 0.0 | 1.0 | 0.00 | 0.00 | 0.00 | 42 | 1023.7 |
| 20260906010706 | 64 | 293 | 0.0 | 1.0 | 0.00 | 0.00 | 0.00 | 42 | 1023.7 |
| 20260906010224 | 64 | 293 | 0.0 | 1.0 | 0.00 | 0.00 | 0.00 | 42 | 1023.8 |
| 20260906005743 | 64 | 257 | 0.0 | 1.0 | 0.00 | 0.00 | 0.00 | 42 | 1023.8 |
| 20260906005218 | 64 | 214 | 0.0 | 3.0 | 0.00 | 0.00 | 0.00 | 43 | 1023.7 |
| 20260906004737 | 64 | 246 | 1.0 | 3.0 | 0.00 | 0.00 | 0.00 | 43 | 1023.7 |
| 20260906004213 | 64 | 254 | 0.0 | 1.0 | 0.00 | 0.00 | 0.00 | 43 | 1023.7 |
| 20260906003711 | 64 | 240 | 0.0 | 2.0 | 0.00 | 0.00 | 0.00 | 42 | 1023.7 |
| 20260906003213 | 64 | 225 | 0.0 | 2.0 | 0.00 | 0.00 | 0.00 | 42 | 1023.6 |
| 20260906002731 | 64 | 243 | 0.0 | 3.0 | 0.00 | 0.00 | 0.00 | 42 | 1023.5 |
| 20260906002208 | 65 | 196 | 0.0 | 3.0 | 0.00 | 0.00 | 0.00 | 42 | 1023.6 |
| 20260906001726 | 65 | 254 | 0.0 | 2.0 | 0.00 | 0.00 | 0.00 | 42 | 1023.6 |
| 20260906001224 | 65 | 275 | 0.0 | 2.0 | 0.00 | 0.00 | 0.00 | 42 | 1023.7 |
| 20260906000721 | 65 | 256 | 0.0 | 2.0 | 0.00 | 0.00 | 0.00 | 42 | 1023.6 |
| 20260906000219 | 65 | 257 | 0.0 | 2.0 | 0.00 | 0.00 | 0.00 | 42 | 1023.6 |
| 20260905235718 | 65 | 248 | 1.0 | 2.0 | 0.00 | 0.00 | 0.00 | 42 | 1023.6 |
| 20260905235215 | 65 | 261 | 0.0 | 2.0 | 0.00 | 0.00 | 0.00 | 43 | 1023.5 |
| 20260905234713 | 65 | 257 | 1.0 | 2.0 | 0.00 | 0.00 | 0.00 | 43 | 1023.4 |
| 20260905234231 | 65 | 285 | 0.0 | 2.0 | 0.00 | 0.00 | 0.00 | 44 | 1023.5 |
| 20260905233728 | 66 | 269 | 1.0 | 2.0 | 0.00 | 0.00 | 0.00 | 43 | 1023.4 |
| 20260905233225 | 66 | 262 | 0.0 | 4.0 | 0.00 | 0.00 | 0.00 | 43 | 1023.5 |
| 20260905232723 | 66 | 250 | 1.0 | 4.0 | 0.00 | 0.00 | 0.00 | 42 | 1023.5 |
| 20260905232221 | 66 | 295 | 1.0 | 2.0 | 0.00 | 0.00 | 0.00 | 41 | 1023.5 |
| 20260905231739 | 67 | 158 | 1.0 | 5.0 | 0.00 | 0.00 | 0.00 | 42 | 1023.3 |
| 20260905231236 | 68 | 251 | 1.0 | 5.0 | 0.00 | 0.00 | 0.00 | 41 | 1023.4 |
| 20260905230712 | 68 | 309 | 1.0 | 4.0 | 0.00 | 0.00 | 0.00 | 41 | 1023.3 |
| 20260905230210 | 69 | 117 | 1.0 | 4.0 | 0.00 | 0.00 | 0.00 | 42 | 1023.4 |
| 20260905225708 | 69 | 281 | 1.0 | 4.0 | 0.00 | 0.00 | 0.00 | 42 | 1023.3 |
| 20260905225210 | 70 | 231 | 1.0 | 2.0 | 0.00 | 0.00 | 0.00 | 39 | 1023.3 |
| 20260905224708 | 70 | 203 | 1.0 | 4.0 | 0.00 | 0.00 | 0.00 | 39 | 1023.3 |
| 20260905224226 | 70 | 207 | 1.0 | 4.0 | 0.00 | 0.00 | 0.00 | 37 | 1023.3 |
| 20260905223725 | 70 | 275 | 1.0 | 4.0 | 0.00 | 0.00 | 0.00 | 37 | 1023.3 |
| 20260905223223 | 70 | 259 | 1.0 | 5.0 | 0.00 | 0.00 | 0.00 | 38 | 1023.3 |
| 20260905222721 | 70 | 207 | 2.0 | 5.0 | 0.00 | 0.00 | 0.00 | 37 | 1023.3 |
| 20260905222219 | 71 | 152 | 1.0 | 5.0 | 0.00 | 0.00 | 0.00 | 36 | 1023.3 |
| 20260905221718 | 71 | 265 | 1.0 | 4.0 | 0.00 | 0.00 | 0.00 | 37 | 1023.3 |
| 20260905221216 | 71 | 307 | 1.0 | 8.0 | 0.00 | 0.00 | 0.00 | 36 | 1023.4 |
| 20260905220714 | 72 | 306 | 1.0 | 8.0 | 0.00 | 0.00 | 0.00 | 36 | 1023.3 |
| 20260905220211 | 72 | 303 | 1.0 | 6.0 | 0.00 | 0.00 | 0.00 | 37 | 1023.4 |
| 20260905215710 | 72 | 269 | 1.0 | 6.0 | 0.00 | 0.00 | 0.00 | 37 | 1023.5 |
| 20260905215208 | 72 | 245 | 2.0 | 6.0 | 0.00 | 0.00 | 0.00 | 37 | 1023.6 |
| 20260905214726 | 72 | 240 | 1.0 | 6.0 | 0.00 | 0.00 | 0.00 | 37 | 1023.5 |
| 20260905214207 | 72 | 259 | 2.0 | 5.0 | 0.00 | 0.00 | 0.00 | 38 | 1023.5 |
| 20260905213726 | 72 | 289 | 2.0 | 7.0 | 0.00 | 0.00 | 0.00 | 37 | 1023.4 |
| 20260905213223 | 72 | 269 | 2.0 | 7.0 | 0.00 | 0.00 | 0.00 | 36 | 1023.5 |
| 20260905212721 | 72 | 98 | 2.0 | 6.0 | 0.00 | 0.00 | 0.00 | 36 | 1023.5 |
| 20260905212219 | 72 | 237 | 1.0 | 6.0 | 0.00 | 0.00 | 0.00 | 35 | 1023.5 |
| 20260905211717 | 72 | 258 | 2.0 | 5.0 | 0.00 | 0.00 | 0.00 | 35 | 1023.5 |
| 20260905211214 | 72 | 283 | 1.0 | 5.0 | 0.00 | 0.00 | 0.00 | 35 | 1023.6 |
| 20260905210711 | 73 | 307 | 1.0 | 7.0 | 0.00 | 0.00 | 0.00 | 34 | 1023.5 |
| 20260905210209 | 73 | 346 | 1.0 | 7.0 | 0.00 | 0.00 | 0.00 | 33 | 1023.6 |
| 20260905205708 | 73 | 260 | 2.0 | 8.0 | 0.00 | 0.00 | 0.00 | 32 | 1023.5 |
| 20260905205247 | 73 | 284 | 2.0 | 9.0 | 0.00 | 0.00 | 0.00 | 34 | 1023.5 |
| 20260905204723 | 73 | 274 | 1.0 | 9.0 | 0.00 | 0.00 | 0.00 | 35 | 1023.6 |
| 20260905204222 | 73 | 257 | 3.0 | 7.0 | 0.00 | 0.00 | 0.00 | 33 | 1023.5 |
| 20260905203722 | 74 | 257 | 2.0 | 5.0 | 0.00 | 0.00 | 0.00 | 34 | 1023.6 |
| 20260905203220 | 74 | 264 | 2.0 | 7.0 | 0.00 | 0.00 | 0.00 | 34 | 1023.5 |
| 20260905202718 | 73 | 290 | 1.0 | 7.0 | 0.00 | 0.00 | 0.00 | 34 | 1023.6 |
| 20260905202236 | 73 | 89 | 1.0 | 4.0 | 0.00 | 0.00 | 0.00 | 36 | 1023.6 |
| 20260905201717 | 73 | 78 | 1.0 | 6.0 | 0.00 | 0.00 | 0.00 | 36 | 1023.6 |
| 20260905201236 | 73 | 266 | 3.0 | 7.0 | 0.00 | 0.00 | 0.00 | 37 | 1023.6 |
| 20260905200712 | 73 | 158 | 2.0 | 7.0 | 0.00 | 0.00 | 0.00 | 37 | 1023.6 |
| 20260905200211 | 72 | 280 | 2.0 | 6.0 | 0.00 | 0.00 | 0.00 | 37 | 1023.7 |
| 20260905195710 | 72 | 283 | 2.0 | 6.0 | 0.00 | 0.00 | 0.00 | 38 | 1023.6 |
| 20260905195227 | 72 | 302 | 1.0 | 4.0 | 0.00 | 0.00 | 0.00 | 38 | 1023.7 |
| 20260905194725 | 71 | 265 | 2.0 | 8.0 | 0.00 | 0.00 | 0.00 | 39 | 1023.6 |
| 20260905194224 | 71 | 254 | 2.0 | 8.0 | 0.00 | 0.00 | 0.00 | 38 | 1023.6 |
| 20260905193721 | 71 | 312 | 2.0 | 7.0 | 0.00 | 0.00 | 0.00 | 38 | 1023.8 |
| 20260905193240 | 71 | 272 | 2.0 | 6.0 | 0.00 | 0.00 | 0.00 | 38 | 1023.7 |
| 20260905192717 | 71 | 301 | 2.0 | 8.0 | 0.00 | 0.00 | 0.00 | 38 | 1023.9 |
| 20260905192215 | 71 | 274 | 1.0 | 8.0 | 0.00 | 0.00 | 0.00 | 38 | 1023.8 |
| 20260905191713 | 71 | 288 | 2.0 | 9.0 | 0.00 | 0.00 | 0.00 | 38 | 1023.8 |
| 20260905191211 | 72 | 287 | 1.0 | 9.0 | 0.00 | 0.00 | 0.00 | 37 | 1023.8 |
| 20260905190709 | 72 | 317 | 1.0 | 5.0 | 0.00 | 0.00 | 0.00 | 37 | 1023.7 |
| 20260905190228 | 71 | 273 | 2.0 | 5.0 | 0.00 | 0.00 | 0.00 | 37 | 1023.7 |
| 20260905185747 | 71 | 318 | 3.0 | 8.0 | 0.00 | 0.00 | 0.00 | 37 | 1023.7 |
| 20260905185223 | 71 | 242 | 2.0 | 8.0 | 0.00 | 0.00 | 0.00 | 37 | 1023.8 |
| 20260905184725 | 71 | 269 | 2.0 | 6.0 | 0.00 | 0.00 | 0.00 | 37 | 1023.8 |
| 20260905184224 | 71 | 222 | 2.0 | 4.0 | 0.00 | 0.00 | 0.00 | 36 | 1023.8 |
| 20260905183721 | 71 | 280 | 2.0 | 4.0 | 0.00 | 0.00 | 0.00 | 36 | 1023.8 |
| 20260905183219 | 71 | 213 | 2.0 | 6.0 | 0.00 | 0.00 | 0.00 | 36 | 1023.8 |
| 20260905182715 | 71 | 153 | 2.0 | 6.0 | 0.00 | 0.00 | 0.00 | 36 | 1023.8 |
| 20260905182213 | 70 | 188 | 2.0 | 6.0 | 0.00 | 0.00 | 0.00 | 36 | 1023.8 |
| 20260905181711 | 70 | 115 | 2.0 | 6.0 | 0.00 | 0.00 | 0.00 | 37 | 1023.8 |
| 20260905181209 | 70 | 338 | 2.0 | 5.0 | 0.00 | 0.00 | 0.00 | 35 | 1023.8 |
| 20260905180727 | 70 | 236 | 2.0 | 6.0 | 0.00 | 0.00 | 0.00 | 34 | 1023.9 |
| 20260905180225 | 70 | 297 | 1.0 | 6.0 | 0.00 | 0.00 | 0.00 | 32 | 1023.9 |
| 20260905175723 | 69 | 269 | 1.0 | 7.0 | 0.00 | 0.00 | 0.00 | 30 | 1023.8 |
| 20260905175221 | 69 | 258 | 2.0 | 7.0 | 0.00 | 0.00 | 0.00 | 30 | 1023.7 |
| 20260905174718 | 69 | 249 | 2.0 | 6.0 | 0.00 | 0.00 | 0.00 | 27 | 1023.7 |
| 20260905174216 | 69 | 189 | 1.0 | 6.0 | 0.00 | 0.00 | 0.00 | 26 | 1023.7 |
| 20260905173717 | 69 | 289 | 2.0 | 6.0 | 0.00 | 0.00 | 0.00 | 23 | 1023.6 |
| 20260905173215 | 70 | 307 | 1.0 | 5.0 | 0.00 | 0.00 | 0.00 | 21 | 1023.5 |
| 20260905172712 | 70 | 232 | 1.0 | 4.0 | 0.00 | 0.00 | 0.00 | 20 | 1023.4 |
| 20260905172211 | 70 | 232 | 1.0 | 7.0 | 0.00 | 0.00 | 0.00 | 19 | 1023.3 |
| 20260905171729 | 69 | 174 | 2.0 | 8.0 | 0.00 | 0.00 | 0.00 | 20 | 1023.2 |
| 20260905171227 | 69 | 302 | 2.0 | 8.0 | 0.00 | 0.00 | 0.00 | 21 | 1023.2 |
| 20260905170745 | 69 | 308 | 2.0 | 4.0 | 0.00 | 0.00 | 0.00 | 21 | 1023.3 |
| 20260905170219 | 69 | 167 | 1.0 | 9.0 | 0.00 | 0.00 | 0.00 | 22 | 1023.2 |
| 20260905165738 | 68 | 238 | 2.0 | 9.0 | 0.00 | 0.00 | 0.00 | 21 | 1023.1 |
| 20260905165215 | 68 | 261 | 1.0 | 7.0 | 0.00 | 0.00 | 0.00 | 21 | 1023.0 |
| 20260905164713 | 68 | 271 | 1.0 | 6.0 | 0.00 | 0.00 | 0.00 | 22 | 1022.9 |
| 20260905164212 | 68 | 269 | 2.0 | 7.0 | 0.00 | 0.00 | 0.00 | 21 | 1022.9 |